Wind_Speed
16 8 9 11 10 12 14 14 13 11 12 15 12 9 10 10 9 11 14 14 11 15 14 14 14 13 14 9 10 23 27 23 23 26 26 26 30 33 34 36 36 36 38 38 37 36 37 37 36 36 37 37 37 36 36 36 36 37 37 35 35 33 29 32 36 34 33 32 30 28 27 26 25 23 22 20 19 19 17 14 13 12 12 12 12 13
15 10 12 14 12 12 14 14 14 13 14 15 12 9 8 9 9 12 14 15 10 11 13 14 13 14 14 10 12 19 21 21 22 22 25 27 28 31 33 35 36 35 35 37 37 37 37 38 36 36 39 39 38 38 38 38 39 38 38 37 38 37 32 33 38 37 35 34 32 30 29 29 27 25 24 23 21 20 19 17 17 15 13 13 12 13
11 13 16 14 12 13 13 14 16 16 15 13 11 9 7 6 7 11 14 16 11 7 11 16 13 11 12 11 14 16 16 23 32 30 29 32 30 30 33 34 36 35 34 37 38 38 39 39 38 38 40 40 39 38 39 39 39 39 39 39 39 38 35 34 37 39 37 34 32 30 29 29 28 26 25 25 22 19 19 20 19 18 16 14 13 13
10 13 15 13 13 15 15 15 16 15 13 11 9 8 8 9 7 7 11 15 12 5 9 14 11 7 9 8 10 17 20 24 33 34 32 35 35 34 37 37 38 38 37 38 39 39 39 40 40 40 41 41 40 39 39 39 40 41 41 41 40 39 38 36 36 38 37 34 31 29 29 28 26 25 24 25 23 20 19 19 19 19 17 15 14 14
12 9 13 16 15 16 16 15 15 12 10 11 12 10 8 11 13 9 8 11 10 7 10 11 6 4 7 8 7 13 20 23 29 31 29 34 38 38 38 38 40 41 41 41 42 41 40 41 41 41 41 42 42 41 41 41 41 42 43 42 42 40 39 38 36 36 36 35 32 29 29 27 24 22 23 25 26 25 22 21 21 20 19 16 15 15
15 11 15 18 16 16 16 14 15 12 8 10 14 14 13 13 15 15 12 8 5 6 9 10 5 3 8 12 9 9 12 16 23 24 24 33 39 38 37 38 40 41 42 43 45 44 42 41 41 42 42 42 42 44 44 43 42 43 43 42 42 42 41 39 37 35 36 37 35 32 31 30 27 25 26 28 29 28 26 24 23 21 19 17 15 16
11 13 13 16 17 18 16 13 15 14 8 8 11 14 17 15 14 16 15 7 4 5 9 11 7 3 7 11 11 12 12 15 19 20 23 32 35 36 37 39 41 40 40 42 44 45 43 41 41 42 44 43 43 45 45 44 42 42 43 42 42 43 42 40 38 35 36 38 38 36 34 33 32 31 30 28 28 28 28 26 25 23 21 18 15 16
11 16 14 15 17 15 14 12 13 15 10 6 9 14 17 17 16 16 13 8 4 3 7 12 9 4 5 9 12 15 15 15 18 18 21 28 32 36 39 40 43 42 42 42 42 43 44 43 43 44 45 45 44 44 44 43 43 42 42 42 42 42 42 41 39 37 37 39 40 38 36 35 34 33 31 28 26 26 26 27 26 25 23 20 16 16
11 17 16 16 15 11 12 12 12 15 12 7 10 13 15 16 16 15 11 7 5 3 4 10 11 6 3 6 10 14 15 14 16 16 18 26 32 36 39 41 44 44 45 45 44 45 46 45 45 45 46 45 44 43 43 43 43 42 42 43 43 42 41 42 41 39 38 38 40 40 38 37 36 34 32 28 26 25 25 26 27 26 25 21 17 16
9 16 18 14 13 10 11 13 13 15 11 9 12 11 11 13 13 12 9 5 5 4 4 7 9 7 3 5 7 11 12 12 12 11 13 26 35 37 40 43 43 44 46 46 46 46 47 47 47 45 44 44 43 42 43 43 43 43 43 44 44 42 42 42 43 42 41 40 39 39 39 39 37 35 33 30 27 26 26 25 25 26 25 23 20 18
10 17 20 14 12 10 11 13 15 16 13 10 11 11 8 9 9 8 7 4 4 5 5 6 7 8 5 6 7 9 10 10 11 9 10 23 35 37 39 43 43 44 45 45 44 45 46 46 45 43 41 42 43 41 41 42 42 43 43 45 45 44 43 43 44 45 44 43 40 39 39 39 39 37 36 34 31 29 28 26 25 25 26 25 23 20
13 14 13 13 17 14 10 12 14 16 16 11 8 8 6 4 5 5 5 5 5 6 6 6 7 7 5 6 8 10 13 15 14 13 12 19 29 36 40 41 43 45 45 45 43 43 43 42 43 43 41 42 43 42 42 43 43 44 44 45 46 46 45 44 45 46 46 45 43 41 39 39 40 39 38 37 35 33 31 29 27 26 26 26 25 22
13 13 9 12 20 19 12 8 11 12 13 11 7 7 6 3 4 5 5 6 6 5 5 6 7 7 5 5 8 10 15 19 18 15 17 23 28 35 40 40 42 44 44 44 44 43 44 43 44 46 44 44 44 44 44 45 46 46 46 47 47 47 47 47 46 46 46 45 44 42 40 39 40 40 40 39 37 36 34 31 29 28 27 26 26 25
9 11 14 13 14 19 16 8 7 9 10 11 8 7 7 5 5 6 4 4 5 5 6 8 7 6 5 5 7 9 10 16 21 19 23 35 38 38 42 43 43 44 44 45 45 45 46 46 46 47 47 47 47 47 46 46 47 47 48 49 49 49 49 49 48 47 46 45 44 42 40 39 40 41 40 39 37 36 35 33 31 30 29 28 27 26
9 9 14 15 9 15 18 11 7 8 8 11 9 6 6 5 5 5 4 5 4 3 6 9 7 4 4 4 5 7 8 10 20 25 26 40 46 44 44 44 43 44 45 45 46 46 48 49 48 48 47 48 49 47 46 45 46 47 48 49 50 50 51 50 50 49 47 46 44 42 41 40 40 40 39 38 37 36 36 34 32 30 31 30 29 27
10 8 10 14 11 13 17 14 10 9 8 8 7 6 7 6 4 3 3 4 3 2 5 7 6 2 2 3 5 7 10 9 13 21 22 33 42 41 39 42 43 44 44 45 46 46 48 50 49 49 48 47 47 47 46 46 46 47 48 48 49 50 51 51 51 51 49 47 45 44 42 41 40 40 40 39 38 37 36 35 33 32 32 32 31 29
9 8 8 14 16 15 17 15 13 11 6 6 9 9 6 6 4 3 2 3 2 3 4 5 6 4 4 5 7 11 14 13 11 12 13 28 43 41 37 41 44 44 45 46 46 46 47 49 49 50 50 48 48 49 49 47 47 47 47 47 48 48 49 51 51 52 50 48 46 45 44 43 42 41 41 40 39 38 37 36 35 32 31 32 32 31
6 6 9 15 18 19 18 17 15 14 8 7 9 8 5 5 6 2 2 3 4 4 4 7 9 7 6 6 7 12 16 16 14 12 10 20 35 37 37 42 44 44 45 46 46 46 46 47 49 51 52 52 52 52 51 47 45 46 46 46 47 47 49 51 51 52 52 50 47 46 45 44 43 42 41 40 39 39 38 38 36 34 32 31 30 30
7 5 8 15 18 17 16 16 13 15 14 8 8 9 6 6 6 4 3 3 6 5 4 8 10 8 8 8 9 13 16 16 15 16 14 14 21 28 35 41 42 42 44 44 45 45 45 46 49 50 52 53 52 51 50 47 45 45 46 46 46 47 48 50 51 51 52 51 49 47 45 44 43 42 41 41 40 40 40 39 38 37 35 33 31 30
9 5 5 13 18 15 11 11 11 12 14 10 8 10 8 5 4 5 4 2 4 4 4 7 8 7 7 10 14 15 15 14 13 14 16 14 19 27 32 37 41 41 42 43 44 46 46 46 48 50 51 50 49 48 47 46 46 47 47 46 45 46 47 49 51 51 51 51 51 49 47 45 44 43 42 41 41 41 41 40 39 38 37 35 34 33
10 7 5 8 15 15 10 10 12 12 12 10 8 9 9 6 4 4 4 3 3 3 3 5 5 5 6 8 15 17 15 15 12 11 13 14 23 33 36 39 43 44 44 45 46 47 47 47 47 48 48 47 47 46 46 46 47 47 48 47 46 46 47 49 50 51 52 51 51 50 49 47 46 44 43 42 42 42 42 41 41 39 38 37 36 35
6 8 7 7 8 12 12 12 13 15 13 11 7 7 10 8 5 6 6 5 5 3 3 4 4 6 5 4 12 17 14 14 13 10 9 13 25 36 40 41 43 45 46 47 48 48 47 47 47 47 47 46 45 46 47 47 48 48 48 47 47 47 48 49 51 52 52 52 52 52 50 49 47 46 45 44 43 43 42 42 41 39 39 38 37 36
7 5 8 8 6 8 13 16 16 17 16 13 9 7 9 10 7 6 5 6 6 5 5 3 3 6 7 6 10 16 12 11 14 11 8 12 24 36 40 41 42 45 47 47 47 48 47 48 48 47 46 46 45 46 46 47 48 48 48 47 46 48 49 49 50 51 52 52 52 52 51 50 49 48 47 46 45 44 43 42 41 39 39 38 38 37
10 4 5 7 7 8 8 12 17 17 15 12 11 9 7 10 10 6 4 5 5 5 6 3 3 5 8 7 4 12 12 12 12 13 11 11 22 37 42 40 40 43 48 49 46 46 47 46 47 47 46 46 47 48 47 47 46 45 45 45 46 48 49 49 50 50 51 52 52 52 52 51 50 49 48 48 47 45 43 42 41 40 40 39 38 38
10 4 3 3 5 6 6 7 13 15 14 9 10 12 10 10 14 9 4 4 5 6 7 3 3 5 7 7 7 9 11 13 10 13 15 14 22 38 43 43 42 42 47 49 45 44 44 42 43 44 44 44 45 47 48 47 45 43 42 43 44 46 47 48 49 50 50 51 51 51 52 51 51 50 49 48 47 46 44 43 42 41 40 40 39 39
9 5 3 3 4 4 4 5 8 11 11 7 9 15 14 12 15 12 5 3 4 7 8 5 3 5 6 6 7 7 8 10 8 10 13 14 23 34 39 44 47 45 46 48 46 44 43 41 41 41 41 41 42 43 45 45 44 42 41 42 42 43 44 46 48 49 50 51 51 51 52 52 51 50 49 49 47 46 45 44 43 42 42 41 40 40
5 5 5 5 5 4 5 5 7 13 13 9 11 15 17 16 13 11 7 4 5 6 6 6 5 4 5 3 3 3 4 6 6 6 7 12 20 28 35 40 44 45 47 48 47 46 45 44 45 44 42 43 43 43 43 42 43 43 42 42 42 41 41 43 45 47 49 50 51 52 52 52 51 51 49 48 47 46 45 44 44 43 42 42 41 41
3 5 7 6 7 8 10 12 5 11 16 16 15 13 17 20 16 10 9 7 6 7 5 7 8 6 5 4 4 5 5 8 9 9 8 13 19 23 35 43 40 39 44 47 48 48 48 47 47 48 47 47 47 46 44 42 43 43 43 43 42 42 41 41 43 45 46 48 49 51 52 51 50 49 48 47 47 46 45 45 44 44 43 42 42 42
3 4 7 8 11 11 12 14 10 4 6 12 17 16 15 21 21 14 10 9 8 8 5 8 10 8 6 6 5 4 7 9 10 14 16 18 21 20 30 39 35 32 37 43 46 48 48 48 47 47 48 48 46 46 45 44 43 44 44 44 43 42 42 41 41 43 44 46 48 50 51 50 49 48 47 47 47 46 45 45 45 44 44 43 43 42
6 5 12 13 12 11 10 11 12 7 2 2 11 15 11 16 23 18 10 9 9 7 8 10 10 5 4 3 4 6 12 14 14 20 22 22 24 25 27 30 29 29 33 38 43 46 47 48 48 47 47 46 44 44 44 43 44 44 44 43 42 42 41 41 42 43 44 46 48 48 49 49 49 48 47 47 47 46 45 45 44 44 44 44 43 43
11 8 15 15 8 5 7 11 14 8 1 2 3 7 4 7 19 19 13 10 8 7 7 9 10 3 2 9 11 11 16 18 15 16 20 21 22 24 24 25 27 30 33 34 37 41 43 44 45 45 45 42 40 41 41 40 42 43 43 42 41 41 41 41 42 43 45 46 46 47 47 47 48 48 48 47 47 46 45 45 44 44 44 44 43 43
11 8 11 11 5 3 3 8 13 9 5 6 4 2 3 3 9 16 13 9 6 8 8 9 10 4 3 10 11 9 12 15 13 13 19 23 26 27 26 24 24 26 28 30 30 33 36 38 39 39 37 35 36 37 38 38 38 40 41 41 40 40 41 42 42 43 45 46 46 46 46 46 46 47 47 47 46 46 45 45 45 45 44 44 44 43
10 9 8 8 6 4 4 7 10 8 6 7 3 0 2 4 4 10 14 12 6 7 7 6 6 7 6 10 10 10 12 11 11 15 21 24 26 29 28 23 20 20 22 23 23 25 28 28 27 27 26 28 32 35 36 37 36 36 37 38 38 38 39 41 42 43 44 45 46 47 46 45 45 45 46 45 45 45 45 45 46 46 45 45 44 44
11 9 6 5 4 5 8 8 5 4 4 3 1 1 2 6 6 3 5 10 7 4 6 9 6 4 9 11 9 11 12 12 16 22 26 26 26 29 29 25 19 18 18 18 18 19 21 20 20 20 21 25 29 31 32 33 33 32 32 33 35 37 38 40 41 43 43 44 46 48 47 46 45 45 44 44 43 44 44 46 46 46 45 45 45 45
11 9 6 4 3 5 7 5 2 1 5 2 3 4 7 8 5 9 14 10 8 7 3 14 13 6 9 12 12 14 17 22 28 32 33 32 31 32 31 28 25 24 23 22 19 18 17 16 16 16 16 18 20 22 25 27 28 28 28 29 32 34 36 38 40 42 42 42 44 47 48 48 47 45 44 43 43 43 44 45 46 46 46 46 46 46
10 7 5 4 4 4 3 1 2 3 6 1 6 10 14 11 6 6 15 17 18 18 11 6 13 12 11 14 17 20 25 31 34 35 36 35 33 33 31 29 29 28 26 25 23 20 18 16 14 12 11 12 12 13 17 21 23 25 26 28 30 32 34 36 38 40 42 42 41 44 48 49 48 46 45 44 43 43 43 44 44 45 45 46 46 47
10 6 3 4 4 3 4 3 3 3 5 2 7 11 12 11 8 3 9 11 18 20 18 10 4 12 14 15 19 25 29 29 23 23 30 31 29 28 28 28 27 24 21 21 21 19 16 15 13 11 11 13 12 12 13 14 17 22 25 27 29 30 31 34 37 38 40 42 41 41 44 47 48 47 46 45 44 44 44 43 43 43 44 45 46 47
11 6 3 3 2 3 4 3 2 2 2 4 11 17 16 17 12 4 12 10 17 20 21 16 8 9 11 13 17 22 24 20 9 11 22 26 25 26 25 24 24 22 18 16 15 14 12 10 10 8 7 9 11 12 13 13 13 16 20 23 27 29 30 32 36 37 38 40 41 40 40 43 46 47 46 46 46 45 44 43 43 42 42 44 45 46
12 8 3 3 3 4 3 2 3 2 1 8 17 19 22 26 17 3 11 8 12 18 23 20 15 14 11 13 17 17 15 10 4 7 18 22 23 25 24 22 21 19 17 15 14 14 12 9 10 9 5 4 6 10 13 15 16 15 16 17 22 27 30 31 33 35 37 38 39 39 38 39 42 45 46 46 45 44 43 42 42 41 41 42 43 44
9 5 3 3 3 4 3 2 3 0 3 13 17 18 27 30 15 3 8 5 10 17 23 22 19 19 18 20 21 14 9 8 6 10 18 21 22 24 23 23 20 16 16 17 14 12 10 7 7 6 2 1 2 5 9 15 18 18 16 15 16 21 27 31 31 30 31 34 37 38 38 37 39 42 44 45 44 43 42 41 41 41 40 40 41 41
3 2 2 2 2 4 3 3 2 1 4 13 16 22 31 24 7 7 6 4 11 14 21 24 22 23 24 23 20 14 13 16 16 18 22 24 24 24 22 21 19 15 16 17 14 11 9 7 6 5 4 4 3 6 9 12 16 20 20 18 16 16 18 23 29 29 28 28 31 36 37 36 36 38 40 42 41 41 41 40 40 40 39 38 39 39
0 1 1 1 2 3 2 3 3 0 7 17 20 25 28 14 3 4 3 6 11 14 21 24 24 25 26 23 22 19 20 23 23 23 24 25 25 25 22 20 19 15 14 14 14 12 10 10 11 9 6 6 7 7 9 11 12 16 18 17 18 18 15 14 19 25 28 28 27 30 34 35 35 34 36 38 39 39 39 39 38 38 37 37 37 37
3 2 2 2 2 2 1 3 3 1 9 21 20 17 17 9 2 1 4 10 17 20 21 23 25 27 27 24 23 22 22 23 24 23 23 23 24 23 20 19 18 16 12 11 12 11 8 9 11 8 5 8 10 8 7 10 10 10 12 14 17 20 19 16 14 16 22 27 27 27 30 32 33 32 33 35 37 37 37 37 36 36 35 35 35 35
5 3 1 2 4 3 2 3 3 2 8 15 14 9 10 11 7 7 8 12 18 21 22 23 25 27 27 25 24 24 24 24 24 23 23 23 22 21 20 17 15 13 12 12 12 7 4 6 8 7 7 9 10 7 4 6 7 6 9 13 15 17 19 19 18 15 16 21 26 26 27 29 30 29 30 31 33 34 35 35 34 33 33 32 32 33
5 3 1 1 1 1 1 3 3 7 10 11 12 9 12 18 16 14 15 15 17 20 22 22 24 26 26 25 25 26 27 27 25 24 24 22 21 20 19 17 14 11 11 12 12 7 2 4 6 7 7 7 6 3 2 2 4 6 9 12 13 14 15 17 18 17 14 16 23 25 26 27 27 26 26 27 29 30 31 31 31 30 30 30 30 31
7 8 4 2 1 2 3 7 5 6 13 15 13 11 13 15 14 15 17 16 16 17 19 20 22 23 23 24 25 25 26 26 25 25 24 23 22 20 18 17 14 10 9 12 12 9 4 2 5 7 6 5 3 1 1 2 3 5 8 10 10 10 12 14 16 15 12 14 20 24 25 25 24 23 22 23 24 25 26 26 27 27 28 28 29 30
7 11 8 5 3 4 3 3 5 11 15 15 13 13 12 11 10 13 14 14 13 15 16 17 19 20 20 22 23 23 23 23 23 23 22 22 21 20 18 19 17 11 8 10 11 9 6 4 5 6 6 7 5 3 3 3 4 4 5 7 8 9 11 12 13 12 12 14 18 21 23 23 21 19 19 20 20 21 21 21 23 24 25 27 28 29
7 11 8 4 5 4 4 7 13 17 16 13 13 13 12 10 10 10 11 12 11 12 12 14 16 18 18 18 19 20 21 22 21 21 20 19 19 18 17 17 17 12 8 9 9 9 8 6 5 5 7 8 5 3 3 3 3 3 4 5 7 9 11 12 11 12 13 15 17 19 20 20 18 17 17 18 19 19 18 19 20 21 23 24 26 27
10 9 5 4 5 5 4 6 12 13 11 13 16 17 18 19 14 10 10 10 11 12 12 11 13 14 14 15 16 17 18 19 19 19 19 17 18 18 16 15 15 12 9 8 8 8 9 7 5 5 6 4 3 3 3 4 4 4 4 3 3 6 9 12 13 13 14 15 16 17 18 19 18 16 15 18 19 18 17 18 19 20 21 22 23 24
9 6 5 5 5 5 5 9 14 11 7 14 20 21 22 24 20 14 12 11 11 12 12 11 11 12 13 14 15 15 15 16 16 18 19 18 17 17 16 15 13 10 9 10 9 8 9 7 5 5 3 2 4 6 4 4 4 4 3 2 4 4 6 9 12 13 14 14 15 15 16 18 18 15 14 17 18 18 18 18 18 19 21 22 23 22
9 8 8 7 5 7 11 19 23 16 10 15 24 26 24 24 23 20 17 14 11 11 12 11 12 14 16 16 15 14 14 15 16 17 18 19 17 16 14 14 13 10 10 11 9 7 6 4 4 3 2 2 6 7 7 6 4 2 2 3 4 4 5 7 9 11 13 14 14 15 15 16 17 17 16 17 17 19 20 20 20 20 20 19 20 21
Wind_Direction
207 224 221 217 208 203 210 219 229 227 226 239 242 225 208 207 230 236 236 240 196 174 197 194 179 194 208 206 162 155 149 148 158 162 170 172 170 173 174 176 179 183 188 190 190 192 192 192 193 194 193 193 195 194 194 193 191 189 189 193 196 201 202 193 190 193 196 195 193 193 190 190 199 201 192 187 190 197 207 218 225 226 221 212 210 214
203 226 228 217 211 208 208 213 225 232 232 238 248 252 224 206 218 226 237 248 215 174 192 193 179 192 201 186 165 158 148 156 168 166 172 176 174 175 173 176 179 182 185 187 190 192 191 191 191 191 192 192 194 196 196 194 192 191 190 193 195 200 203 196 192 194 197 199 198 196 193 193 200 202 193 187 192 197 201 210 220 225 226 218 213 215
203 229 224 212 210 213 213 210 215 227 234 235 242 259 256 231 220 217 233 245 227 182 182 187 184 189 192 182 173 167 157 164 171 173 177 180 178 176 174 176 178 179 182 185 189 191 190 190 189 190 193 194 195 197 198 197 195 193 192 193 196 200 204 200 196 197 200 201 202 201 198 197 201 203 197 191 190 194 203 210 218 226 227 223 217 215
207 225 213 210 211 209 216 215 210 219 230 236 234 239 254 257 251 220 222 237 235 197 168 178 181 178 182 192 186 179 173 167 173 178 179 179 178 177 178 179 178 178 181 184 187 190 189 189 189 191 194 194 194 195 196 196 195 195 194 195 196 199 203 203 201 200 201 202 204 204 202 201 204 205 200 194 189 191 202 211 217 226 231 228 219 215
224 212 187 207 218 206 212 217 213 213 217 231 235 232 239 245 255 257 229 230 235 206 171 163 166 178 183 201 208 183 172 167 175 180 177 177 179 179 180 180 179 180 182 183 185 188 189 189 191 192 194 193 193 195 196 196 196 195 195 196 196 199 203 205 205 203 202 202 202 202 201 198 200 205 203 198 194 191 196 208 217 224 231 229 219 215
232 211 180 200 217 211 211 215 216 216 209 223 231 234 241 241 247 260 255 233 224 211 180 153 156 218 198 198 201 179 170 169 176 181 179 179 180 179 179 179 181 183 184 184 185 187 188 189 192 192 193 194 195 198 199 198 199 197 196 198 198 199 203 206 207 205 202 202 202 201 199 195 195 203 206 204 203 199 196 204 214 222 228 227 218 213
225 219 199 198 208 212 214 214 215 216 214 216 217 225 240 249 249 257 265 251 205 209 190 167 162 210 203 200 194 181 181 181 181 185 185 183 181 179 178 178 180 183 184 186 186 187 188 189 190 192 193 195 197 199 199 199 200 200 200 200 200 201 204 206 206 205 203 203 204 205 203 201 200 204 208 208 209 208 203 204 212 221 227 228 221 213
201 211 216 207 203 208 214 216 210 211 222 217 199 208 226 243 251 256 268 265 235 222 204 186 167 160 200 204 196 188 190 192 192 191 185 184 184 181 179 179 180 183 184 185 187 188 189 190 192 194 195 196 197 197 197 199 200 201 201 200 201 203 205 206 206 205 203 203 205 207 207 207 205 207 211 210 210 212 210 208 213 220 228 230 223 215
191 206 217 214 208 207 208 211 208 210 224 223 204 208 214 225 243 254 264 269 267 286 241 202 174 161 222 222 197 189 192 200 202 196 183 183 185 181 179 179 181 184 186 186 188 189 190 192 193 196 197 196 196 196 197 199 200 202 201 200 200 203 205 205 205 206 205 204 206 207 208 207 206 207 210 211 210 211 211 211 213 217 225 229 223 215
196 205 213 220 218 213 202 201 206 213 221 218 218 225 216 212 226 243 253 271 295 291 253 216 184 171 223 233 200 191 194 195 201 205 183 179 183 180 176 178 180 183 185 186 188 190 191 193 195 197 197 196 195 197 199 199 201 202 201 200 201 204 205 204 204 205 207 207 207 208 207 206 205 203 205 209 211 209 209 211 212 214 220 225 224 218
222 203 204 221 227 219 204 195 199 213 218 210 217 232 233 215 209 224 244 266 295 272 243 239 208 185 202 221 201 193 191 184 191 209 182 171 178 178 175 176 178 180 183 185 188 192 193 194 195 196 196 196 197 197 199 199 200 202 201 201 202 205 206 205 204 205 208 210 210 210 208 206 205 202 201 205 209 210 210 211 213 215 216 220 225 223
235 216 201 210 219 223 218 200 195 204 212 212 208 217 238 234 195 199 224 230 249 255 247 259 248 219 219 227 210 189 184 185 193 203 183 164 171 175 175 176 176 178 181 183 187 190 192 192 193 194 195 196 197 197 199 200 201 202 202 203 203 205 205 206 206 207 209 212 213 213 211 208 206 205 203 205 210 213 214 214 214 214 215 218 223 225
229 233 227 204 208 217 223 209 194 194 202 210 204 192 210 222 189 196 206 211 229 249 256 265 262 246 238 231 213 192 186 190 197 199 176 163 168 171 173 175 175 178 181 182 186 188 189 191 192 194 196 196 196 197 200 201 202 203 204 204 204 205 206 207 207 209 210 212 213 214 212 210 208 208 208 210 213 216 218 218 214 211 213 216 220 223
216 230 236 222 200 205 217 212 188 192 191 199 205 185 189 195 185 196 201 206 226 236 248 265 272 249 241 246 219 205 204 195 196 200 175 164 170 170 170 174 175 178 182 182 185 187 188 191 194 195 196 198 199 199 200 201 202 203 204 205 206 206 207 208 208 209 210 212 214 214 213 211 210 210 212 214 216 218 220 221 218 213 213 216 219 221
213 217 222 227 200 183 208 221 190 182 185 198 205 185 187 196 182 188 189 190 210 203 209 238 256 228 209 227 218 226 244 208 195 202 182 165 170 171 169 173 175 178 181 181 184 187 189 192 193 194 195 198 201 200 201 202 202 204 205 206 207 208 208 208 208 210 211 213 215 215 214 212 211 211 213 216 218 219 220 221 221 216 214 218 222 223
223 227 207 222 226 185 196 217 203 183 186 193 196 195 200 200 176 169 182 171 163 165 189 216 242 229 199 214 208 233 260 247 203 200 182 162 167 170 168 171 175 178 179 180 183 187 191 193 193 194 195 197 200 200 200 202 203 204 206 207 208 209 209 209 209 210 212 215 215 216 216 215 213 213 214 216 217 219 221 223 223 220 217 218 222 225
225 229 192 203 225 214 194 200 207 200 184 168 193 208 191 188 192 151 158 166 168 222 211 213 238 252 261 255 221 214 234 246 229 212 185 162 166 170 169 171 175 177 178 181 185 189 192 193 194 196 197 197 198 200 201 203 204 205 206 207 209 210 211 211 211 212 213 215 216 216 218 217 216 215 215 217 217 218 221 224 225 224 221 220 221 224
240 236 202 194 213 222 203 194 208 215 197 160 189 198 148 188 224 170 152 187 189 220 217 207 221 214 210 237 230 215 219 226 223 220 205 168 166 169 171 174 175 175 178 181 184 189 193 194 196 197 199 199 201 203 202 202 204 206 207 208 209 210 212 213 214 214 214 215 216 217 218 219 219 218 218 218 219 219 220 222 224 226 226 224 224 225
257 251 215 200 203 214 204 192 205 218 213 192 170 167 166 208 213 180 192 191 184 213 224 216 219 207 198 201 209 217 216 215 212 208 206 182 168 169 169 172 174 172 175 179 182 187 192 195 197 198 200 202 203 204 203 202 204 206 208 210 211 214 216 216 216 215 215 215 216 218 220 221 221 221 221 221 220 220 220 221 224 226 228 229 230 230
256 264 232 208 194 194 199 193 197 208 212 209 173 165 189 214 182 174 205 197 183 203 213 221 220 211 212 196 195 209 211 206 205 200 201 187 171 172 167 166 171 172 174 178 182 188 192 195 198 199 200 201 202 203 202 202 205 207 208 210 213 216 217 217 217 216 216 216 217 219 220 221 222 222 223 223 222 221 221 223 224 226 229 231 233 234
246 244 260 229 191 183 195 200 194 190 195 208 196 174 185 196 165 175 210 219 210 214 203 218 235 232 232 201 190 199 202 200 197 187 193 183 168 171 170 167 171 173 175 179 184 190 193 196 198 199 199 200 201 202 202 202 205 207 208 210 213 215 217 217 218 217 217 217 218 219 220 221 222 223 224 224 224 223 223 224 225 227 229 231 233 233
262 236 251 255 209 192 197 193 185 184 190 205 207 180 178 185 178 178 205 218 212 236 225 201 240 251 255 222 189 192 195 193 186 173 182 183 170 170 173 174 173 174 177 180 186 191 194 197 198 198 198 199 199 200 201 202 204 206 208 211 213 215 217 218 218 218 218 218 219 220 222 223 224 224 224 224 224 224 225 225 226 228 229 230 232 234
320 258 240 245 254 233 204 184 175 182 190 202 214 202 177 181 189 180 192 203 200 234 248 234 259 262 272 265 193 183 178 168 172 170 168 187 177 171 174 176 173 176 181 183 187 191 195 198 198 197 198 199 198 198 199 201 203 206 208 211 212 214 217 218 219 219 219 219 220 221 222 223 224 225 224 224 225 226 226 227 228 228 229 230 232 234
334 295 243 244 259 272 238 183 170 179 190 201 213 213 193 185 188 184 178 178 182 218 230 248 281 265 286 306 146 151 149 143 163 174 176 195 178 169 172 175 171 176 184 186 187 190 193 194 194 195 197 198 199 199 200 201 203 205 208 210 212 214 216 218 219 219 220 221 222 223 223 223 225 225 225 225 226 227 228 228 229 229 230 231 232 233
316 302 297 275 227 241 257 193 171 179 190 202 204 208 218 195 178 187 209 169 179 216 207 203 254 250 287 337 54 103 128 138 162 184 189 191 169 165 170 172 172 176 182 185 187 188 189 189 191 193 196 198 200 202 202 202 203 204 207 210 212 214 216 218 219 219 220 221 222 223 224 224 225 225 226 227 227 228 229 229 230 231 231 231 232 233
285 279 300 284 219 213 228 204 185 181 185 203 198 198 218 214 183 183 200 165 184 215 205 195 227 256 296 354 46 70 110 142 166 182 180 164 154 163 171 172 174 175 177 180 182 184 186 187 190 194 196 198 201 203 203 203 203 204 206 210 212 214 216 217 218 219 220 221 222 223 224 224 224 225 227 228 229 229 229 229 230 231 232 232 233 233
255 254 262 229 234 248 253 249 198 172 173 197 202 192 204 218 206 178 172 195 188 180 201 206 186 219 286 346 70 101 117 124 116 111 115 112 129 157 171 175 177 173 170 174 177 180 184 186 190 194 196 197 199 200 202 203 203 203 204 208 211 213 216 217 218 219 221 222 222 223 224 224 225 227 228 230 230 230 230 229 229 230 232 233 233 233
271 275 285 257 263 260 265 286 261 172 172 187 202 200 193 205 220 200 178 195 164 141 207 223 164 160 249 262 231 203 136 108 102 98 98 105 120 154 174 178 178 170 166 171 174 177 181 183 188 192 194 196 197 199 201 202 203 203 204 207 210 211 215 217 218 219 220 222 223 223 224 225 227 228 229 230 231 230 231 230 229 230 232 234 234 234
303 288 313 305 299 292 279 285 286 239 173 181 200 211 194 193 213 218 191 181 158 142 199 203 159 161 216 231 243 212 130 114 114 108 101 105 114 141 166 169 167 164 165 170 172 176 179 182 185 188 191 194 196 199 203 203 203 204 204 206 209 211 214 217 218 219 219 221 223 224 225 225 226 228 228 229 230 230 231 231 231 231 231 233 234 235
313 319 335 322 300 301 305 290 280 277 15 125 200 214 207 192 203 216 210 186 168 161 186 174 151 166 208 132 76 92 108 104 105 107 99 96 106 123 142 148 149 157 166 169 172 177 181 184 186 189 192 194 196 199 202 202 202 203 204 206 208 210 213 215 218 219 219 221 223 224 225 225 226 227 227 228 229 230 231 231 232 231 231 232 234 236
320 332 335 328 303 297 325 310 296 288 332 5 223 219 257 206 198 208 217 203 178 174 180 141 113 93 80 94 83 79 92 88 82 90 91 84 88 104 123 129 133 148 161 167 173 178 181 183 187 192 195 195 197 198 199 200 201 202 204 206 208 211 212 214 217 220 221 221 223 224 226 226 226 226 227 227 228 230 231 231 231 231 231 231 233 235
324 331 330 336 334 319 318 288 292 308 312 290 268 231 337 314 206 201 207 213 184 171 168 119 109 138 124 97 91 72 73 78 72 71 79 77 74 81 97 108 118 133 148 157 167 176 180 183 187 191 193 194 198 199 199 200 202 203 205 207 209 212 213 214 217 220 222 221 222 224 227 227 227 226 227 228 228 229 230 230 230 230 230 230 232 234
319 329 336 345 340 330 320 280 287 320 303 266 263 276 26 349 271 198 199 217 195 155 159 139 150 181 142 96 92 84 70 71 81 79 79 78 75 76 80 87 103 121 134 144 155 166 174 180 183 187 192 197 200 201 201 202 203 204 207 210 211 213 214 215 217 220 223 223 222 224 227 228 229 228 228 229 229 229 229 229 229 229 230 231 231 232
309 317 328 340 324 310 320 313 319 343 287 230 109 340 30 20 9 97 176 230 222 159 140 134 137 152 119 102 99 101 88 81 83 76 70 69 69 70 68 69 86 108 119 128 140 153 161 167 171 179 189 193 195 197 199 202 205 208 211 212 213 214 215 217 218 220 224 225 223 224 225 227 229 231 231 231 230 230 229 229 229 230 230 231 230 230
304 313 317 322 295 293 320 342 35 294 264 207 100 16 14 7 6 62 50 14 345 350 77 126 122 107 104 100 97 101 93 81 71 62 59 62 66 69 69 67 75 87 94 101 112 126 136 143 149 158 170 179 185 192 197 202 207 211 215 216 215 215 217 219 220 222 224 227 226 225 225 225 227 230 232 233 232 231 230 229 230 230 230 229 229 231
289 304 314 312 297 300 336 349 179 247 280 249 75 33 11 345 315 63 51 24 9 0 1 101 124 113 98 92 93 96 89 75 63 53 54 62 66 67 65 65 73 82 85 89 97 108 117 125 131 136 147 162 173 185 198 208 213 215 218 219 218 219 220 221 222 223 225 227 228 227 226 226 226 227 230 232 233 233 233 232 231 231 230 229 230 231
273 290 322 320 317 351 340 280 225 274 312 12 43 13 349 318 304 86 82 25 9 9 0 350 105 110 100 97 98 95 83 71 58 44 46 55 62 65 65 65 70 76 78 83 89 95 105 122 131 136 152 167 173 175 183 198 211 217 220 222 222 222 222 223 225 225 225 227 229 229 228 227 227 227 227 229 231 233 234 234 234 233 232 231 230 231
257 262 297 309 318 352 332 301 276 285 298 2 350 342 330 312 308 93 97 36 3 7 4 354 11 74 92 104 104 96 80 67 53 33 40 48 55 58 62 64 62 61 63 68 74 75 79 95 100 108 147 175 190 197 193 188 195 208 217 222 225 224 222 223 226 227 228 228 229 230 230 229 228 228 228 227 229 232 234 235 235 235 234 234 233 232
247 249 264 281 291 315 315 348 340 288 74 356 341 337 328 315 308 62 87 36 350 355 4 7 16 32 50 72 78 83 79 70 67 39 40 48 53 52 56 59 56 53 49 44 52 63 66 75 85 93 120 158 188 209 213 208 206 211 215 218 222 223 224 224 224 226 229 230 231 232 232 232 230 229 229 229 229 231 233 235 236 236 236 236 236 236
242 251 255 250 268 302 295 323 342 107 21 345 339 338 327 315 309 62 77 26 332 348 5 14 21 26 34 52 61 65 72 71 68 50 47 52 55 53 54 56 54 50 42 32 34 49 54 59 78 93 105 84 190 218 225 220 220 224 227 224 219 218 223 228 228 227 228 230 232 233 234 234 233 231 231 230 230 230 231 234 235 236 236 237 237 238
242 251 252 246 294 319 318 334 343 123 2 341 342 347 338 326 335 71 74 287 300 343 16 20 22 26 30 44 58 58 57 59 55 53 53 52 50 50 51 53 56 59 53 39 22 15 20 16 16 18 350 324 284 245 239 232 229 230 232 235 231 222 222 230 232 231 229 229 231 234 234 235 234 233 232 231 231 231 231 233 234 235 237 237 238 239
345 281 316 309 293 311 349 357 338 69 356 344 348 0 2 3 65 61 9 304 324 7 27 22 22 25 24 38 55 58 57 56 51 50 51 48 46 45 43 44 47 50 57 47 22 6 4 355 353 2 350 308 287 264 248 242 240 239 237 238 238 232 228 230 231 231 231 230 230 233 234 234 234 233 232 231 231 231 231 232 233 234 237 238 239 240
13 335 333 347 331 336 41 13 13 64 344 343 351 12 20 31 120 290 343 2 13 25 28 22 22 24 21 29 42 48 52 51 47 46 46 44 43 39 36 40 42 42 47 37 11 6 18 4 350 353 339 307 307 304 268 248 249 250 243 239 237 234 230 227 226 226 228 230 231 232 233 234 233 232 231 230 230 231 231 232 233 234 237 239 239 240
19 0 355 9 2 10 52 39 38 245 307 347 17 37 7 7 44 67 43 24 20 23 24 21 19 20 22 25 27 32 38 40 41 43 40 38 39 34 30 31 32 37 42 23 358 354 46 38 1 330 307 308 318 333 311 254 242 234 233 233 233 230 226 224 224 222 222 226 229 230 231 233 232 230 229 229 229 230 231 232 234 236 238 239 239 239
0 359 170 217 330 24 281 265 270 273 302 354 36 45 9 8 25 47 49 36 24 21 24 23 18 16 20 23 22 24 27 28 32 36 34 32 29 26 26 22 18 26 32 16 357 339 340 49 14 332 308 307 312 330 347 276 229 215 222 228 233 232 224 221 224 223 218 221 226 227 227 228 229 228 227 227 228 229 230 231 233 235 237 238 238 238
353 12 12 289 300 15 284 248 248 322 337 352 12 24 19 14 17 34 45 41 29 24 25 22 17 16 18 20 20 21 21 20 24 28 28 26 20 16 16 11 4 6 18 14 3 346 318 352 8 344 318 310 302 267 282 265 225 221 224 223 228 230 223 220 223 221 216 216 219 222 223 223 223 224 223 224 227 230 233 234 235 236 237 236 236 237
4 18 7 321 330 11 332 295 342 341 328 330 344 351 356 9 27 37 37 31 26 28 29 24 18 14 15 17 17 18 19 17 17 19 21 22 18 11 6 1 353 349 3 7 355 343 337 343 354 348 328 319 310 273 271 274 251 250 247 234 229 222 214 214 214 206 204 209 210 211 215 218 218 218 218 219 222 225 229 234 236 236 236 235 234 235
346 2 357 326 334 345 307 310 323 316 304 307 324 329 338 4 33 32 19 18 24 23 21 22 18 14 13 12 12 15 17 16 13 11 11 13 13 7 360 356 350 342 347 356 344 335 339 337 320 316 327 332 330 309 316 329 310 300 302 277 252 229 213 209 200 186 187 197 201 201 204 211 216 217 214 214 215 217 220 226 230 232 234 235 234 234
311 329 327 303 317 317 287 312 333 328 316 322 334 342 349 354 3 11 4 6 17 16 9 13 12 8 6 4 2 5 10 12 10 7 2 1 3 3 359 352 345 338 344 354 340 320 325 329 309 302 319 344 7 8 42 70 53 10 344 303 246 220 210 208 200 186 180 184 192 195 199 206 213 216 211 207 206 207 213 221 226 228 231 233 233 234
312 331 339 331 329 317 320 351 359 354 325 317 326 337 342 339 339 346 345 345 358 4 3 6 4 354 347 346 349 353 358 2 5 3 358 353 350 353 353 347 337 330 339 351 340 314 313 321 314 311 331 35 18 7 38 80 50 4 325 230 188 182 196 199 195 191 187 185 189 193 197 203 208 208 203 200 202 205 210 215 220 222 224 227 229 230
10 7 359 351 329 306 321 337 340 333 313 310 318 325 327 324 323 328 332 336 342 342 345 353 351 339 333 334 340 346 349 351 352 353 352 349 343 341 341 340 332 317 319 337 341 320 305 314 332 345 20 24 11 28 62 74 59 57 206 209 192 180 184 183 183 190 193 189 189 193 195 196 197 199 198 196 201 207 209 209 211 212 214 218 220 222
Height
1451 1457 1456 1452 1452 1453 1454 1454 1456 1456 1457 1458 1456 1457 1458 1460 1459 1449 1442 1431 1428 1445 1453 1450 1454 1456 1453 1451 1449 1451 1456 1461 1467 1470 1473 1476 1479 1482 1485 1487 1490 1493 1497 1501 1504 1506 1508 1510 1513 1516 1519 1521 1523 1525 1527 1529 1531 1533 1536 1538 1539 1541 1544 1546 1548 1550 1552 1555 1557 1558 1560 1562 1563 1566 1568 1570 1571 1573 1574 1574 1575 1576 1577 1579 1580 1581
1450 1455 1448 1444 1446 1447 1449 1451 1452 1454 1455 1454 1455 1455 1453 1454 1453 1443 1437 1429 1424 1440 1451 1444 1450 1453 1449 1448 1446 1447 1454 1460 1463 1467 1470 1472 1475 1478 1481 1484 1487 1491 1495 1499 1502 1504 1505 1508 1510 1513 1516 1518 1520 1522 1524 1526 1528 1531 1534 1536 1538 1539 1541 1544 1545 1547 1549 1552 1554 1556 1558 1560 1562 1564 1566 1568 1570 1572 1573 1574 1574 1575 1576 1578 1579 1580
1451 1447 1438 1439 1441 1443 1446 1447 1450 1453 1453 1454 1454 1455 1456 1450 1447 1441 1433 1426 1422 1435 1446 1443 1448 1451 1444 1443 1443 1442 1449 1454 1456 1460 1465 1468 1471 1475 1478 1481 1484 1488 1492 1495 1498 1501 1502 1504 1507 1510 1512 1514 1517 1519 1522 1524 1526 1529 1531 1534 1536 1537 1539 1541 1543 1545 1547 1550 1552 1555 1557 1559 1561 1563 1565 1567 1569 1571 1572 1572 1573 1574 1575 1577 1578 1579
1447 1436 1432 1437 1438 1440 1445 1444 1447 1451 1452 1453 1452 1455 1457 1448 1447 1448 1436 1426 1422 1428 1436 1440 1445 1447 1442 1442 1442 1440 1443 1448 1451 1455 1459 1463 1467 1470 1473 1476 1480 1483 1487 1490 1494 1497 1499 1501 1503 1505 1508 1511 1514 1516 1519 1521 1523 1526 1528 1530 1533 1535 1537 1539 1541 1543 1546 1549 1551 1554 1557 1558 1560 1562 1564 1566 1568 1569 1570 1571 1572 1572 1574 1575 1576 1578
1435 1426 1427 1434 1434 1437 1443 1443 1445 1450 1452 1450 1447 1450 1452 1445 1444 1444 1435 1426 1424 1425 1426 1435 1450 1451 1444 1447 1446 1440 1440 1444 1447 1451 1455 1459 1462 1466 1469 1472 1475 1478 1481 1485 1488 1492 1495 1497 1499 1502 1504 1508 1510 1513 1514 1516 1519 1521 1524 1527 1530 1532 1534 1537 1539 1542 1545 1547 1550 1553 1556 1558 1560 1561 1563 1564 1565 1567 1568 1569 1569 1571 1572 1573 1575 1576
1429 1423 1425 1431 1433 1434 1439 1442 1441 1444 1451 1450 1444 1442 1442 1441 1439 1437 1432 1430 1437 1440 1428 1432 1462 1465 1446 1446 1448 1442 1442 1445 1445 1447 1450 1453 1456 1460 1464 1468 1472 1475 1477 1480 1483 1487 1491 1494 1497 1499 1502 1504 1507 1508 1511 1513 1516 1518 1521 1524 1527 1530 1532 1534 1537 1540 1542 1544 1547 1549 1552 1554 1556 1557 1559 1560 1561 1563 1565 1566 1567 1569 1570 1572 1573 1574
1424 1421 1422 1427 1431 1432 1436 1439 1435 1437 1447 1450 1440 1434 1435 1436 1436 1435 1432 1434 1444 1447 1428 1425 1456 1468 1452 1446 1443 1439 1443 1445 1444 1444 1444 1447 1452 1455 1459 1463 1467 1471 1475 1478 1480 1483 1487 1490 1493 1495 1498 1500 1502 1504 1508 1511 1514 1516 1519 1521 1524 1527 1530 1532 1535 1538 1540 1542 1544 1546 1548 1550 1552 1553 1555 1557 1559 1561 1563 1565 1566 1567 1569 1570 1572 1573
1417 1421 1422 1422 1427 1431 1434 1435 1430 1430 1441 1443 1431 1429 1433 1433 1436 1434 1432 1436 1437 1435 1429 1422 1436 1457 1458 1446 1435 1434 1440 1442 1441 1441 1441 1443 1447 1450 1453 1457 1461 1466 1470 1474 1478 1481 1483 1486 1489 1491 1493 1496 1498 1502 1506 1509 1511 1513 1516 1518 1521 1524 1527 1530 1532 1535 1537 1539 1541 1543 1546 1548 1550 1551 1553 1555 1558 1560 1562 1564 1564 1565 1567 1568 1570 1571
1411 1419 1419 1419 1424 1427 1427 1426 1423 1425 1434 1433 1423 1424 1428 1429 1432 1431 1432 1436 1431 1434 1443 1431 1427 1451 1459 1442 1430 1431 1438 1442 1439 1437 1437 1439 1443 1446 1449 1453 1456 1460 1464 1468 1472 1476 1479 1482 1485 1487 1490 1493 1497 1500 1503 1506 1508 1511 1513 1515 1518 1522 1525 1527 1530 1532 1534 1536 1538 1540 1543 1545 1548 1550 1552 1554 1556 1558 1559 1561 1562 1564 1565 1566 1568 1569
1408 1411 1413 1415 1419 1420 1418 1417 1417 1422 1427 1423 1419 1420 1422 1424 1428 1429 1433 1436 1434 1443 1452 1437 1428 1448 1457 1441 1433 1435 1437 1439 1436 1431 1431 1433 1438 1442 1443 1448 1453 1456 1460 1464 1467 1471 1474 1477 1481 1485 1488 1492 1495 1497 1500 1503 1507 1509 1511 1514 1516 1519 1522 1525 1527 1529 1531 1534 1536 1538 1540 1542 1545 1548 1550 1552 1554 1556 1557 1559 1560 1561 1562 1564 1566 1567
1403 1402 1406 1407 1410 1409 1409 1410 1411 1415 1418 1416 1419 1423 1425 1425 1426 1430 1432 1434 1445 1453 1448 1435 1428 1439 1453 1443 1432 1431 1429 1427 1429 1427 1426 1428 1433 1437 1439 1444 1449 1452 1456 1460 1464 1468 1472 1475 1479 1484 1487 1490 1493 1496 1499 1501 1504 1508 1509 1512 1514 1516 1519 1521 1524 1527 1529 1531 1533 1535 1538 1540 1542 1545 1547 1549 1551 1553 1554 1556 1558 1559 1560 1562 1564 1566
1403 1403 1402 1399 1400 1401 1403 1407 1406 1407 1410 1414 1421 1427 1433 1434 1432 1438 1439 1440 1458 1461 1442 1431 1427 1435 1450 1442 1424 1419 1415 1414 1418 1420 1422 1426 1430 1433 1437 1441 1444 1448 1452 1456 1461 1465 1470 1474 1477 1481 1485 1487 1491 1493 1495 1498 1501 1504 1507 1509 1511 1514 1516 1519 1521 1524 1526 1528 1530 1532 1535 1538 1540 1542 1544 1546 1548 1550 1551 1553 1555 1557 1559 1560 1562 1564
1406 1402 1397 1395 1395 1395 1402 1409 1408 1407 1409 1415 1422 1428 1443 1449 1447 1455 1456 1450 1458 1455 1435 1427 1430 1435 1440 1429 1414 1412 1409 1405 1406 1408 1413 1420 1425 1430 1434 1438 1441 1444 1448 1452 1457 1461 1466 1470 1473 1476 1480 1483 1487 1488 1490 1493 1495 1499 1502 1504 1507 1510 1513 1515 1518 1520 1523 1525 1527 1530 1532 1535 1538 1540 1542 1544 1545 1547 1549 1551 1553 1555 1556 1558 1559 1561
1411 1405 1396 1395 1393 1389 1396 1407 1412 1412 1411 1416 1421 1427 1443 1452 1458 1467 1463 1455 1456 1448 1431 1425 1430 1435 1433 1419 1406 1404 1402 1399 1398 1400 1405 1410 1417 1424 1428 1432 1437 1440 1444 1448 1452 1456 1460 1464 1467 1471 1474 1478 1482 1484 1486 1488 1491 1494 1497 1500 1503 1505 1509 1512 1514 1516 1519 1522 1524 1527 1529 1532 1535 1537 1539 1541 1543 1545 1547 1549 1551 1553 1554 1555 1557 1558
1417 1415 1397 1392 1391 1386 1390 1396 1401 1405 1409 1412 1410 1417 1431 1437 1447 1458 1456 1455 1455 1446 1436 1433 1433 1433 1430 1416 1400 1394 1393 1394 1397 1398 1400 1404 1410 1416 1422 1427 1432 1436 1440 1443 1447 1451 1454 1457 1462 1467 1470 1474 1477 1482 1484 1486 1488 1491 1493 1496 1499 1502 1505 1508 1511 1513 1515 1518 1521 1524 1527 1529 1532 1534 1536 1539 1541 1543 1545 1547 1549 1551 1552 1553 1554 1556
1410 1408 1388 1384 1384 1381 1387 1388 1386 1396 1409 1408 1403 1414 1423 1419 1426 1437 1439 1438 1440 1442 1441 1437 1429 1419 1414 1405 1393 1392 1392 1390 1394 1396 1397 1403 1408 1413 1419 1424 1428 1432 1435 1439 1443 1447 1450 1453 1458 1463 1467 1470 1474 1479 1482 1483 1485 1487 1490 1493 1496 1499 1503 1506 1508 1511 1512 1515 1518 1521 1523 1526 1529 1531 1534 1536 1538 1540 1542 1544 1546 1548 1550 1551 1553 1555
1405 1400 1382 1382 1382 1376 1381 1382 1380 1390 1403 1405 1406 1412 1410 1405 1414 1429 1435 1428 1432 1448 1445 1431 1426 1419 1414 1408 1396 1395 1396 1391 1392 1394 1394 1398 1403 1409 1415 1418 1423 1427 1430 1434 1438 1442 1446 1450 1454 1458 1462 1466 1470 1474 1476 1478 1481 1484 1487 1490 1493 1497 1501 1504 1506 1508 1510 1512 1515 1517 1520 1523 1526 1528 1531 1533 1536 1538 1540 1542 1544 1546 1548 1550 1552 1553
1397 1398 1381 1378 1383 1376 1372 1377 1378 1379 1386 1399 1408 1406 1401 1406 1411 1420 1436 1438 1443 1456 1443 1425 1427 1427 1427 1422 1403 1396 1400 1395 1392 1391 1392 1395 1397 1402 1407 1412 1417 1420 1424 1429 1433 1438 1442 1446 1450 1453 1457 1460 1463 1466 1471 1476 1480 1483 1485 1487 1491 1494 1497 1500 1503 1506 1508 1509 1512 1514 1517 1520 1523 1525 1528 1530 1533 1535 1538 1539 1541 1544 1546 1548 1550 1551
1388 1397 1384 1371 1377 1375 1368 1378 1386 1378 1375 1385 1393 1393 1401 1419 1422 1420 1432 1442 1449 1455 1441 1425 1422 1421 1421 1417 1402 1398 1399 1394 1391 1389 1390 1395 1397 1399 1403 1408 1413 1417 1422 1426 1431 1435 1438 1442 1446 1449 1453 1456 1459 1464 1469 1474 1478 1481 1483 1485 1487 1490 1493 1497 1500 1503 1506 1508 1510 1512 1514 1517 1520 1522 1525 1528 1530 1533 1535 1537 1539 1541 1543 1545 1547 1549
1383 1396 1390 1367 1364 1371 1371 1379 1389 1386 1378 1378 1384 1389 1396 1408 1416 1417 1421 1425 1434 1443 1439 1429 1424 1415 1406 1397 1392 1393 1390 1387 1388 1387 1387 1390 1394 1397 1401 1406 1411 1415 1419 1423 1428 1432 1435 1438 1442 1445 1449 1453 1458 1463 1466 1470 1473 1476 1479 1481 1484 1487 1490 1495 1498 1501 1503 1506 1508 1510 1512 1514 1517 1519 1522 1525 1527 1529 1531 1534 1536 1538 1540 1542 1544 1546
1380 1390 1394 1373 1360 1369 1375 1373 1377 1382 1383 1385 1390 1395 1398 1400 1403 1409 1413 1412 1418 1431 1432 1430 1427 1410 1387 1377 1379 1381 1379 1378 1380 1382 1383 1383 1387 1393 1397 1402 1407 1410 1415 1419 1424 1428 1431 1435 1439 1442 1447 1450 1454 1459 1462 1465 1468 1471 1475 1477 1479 1483 1487 1491 1494 1497 1500 1502 1505 1507 1509 1511 1513 1516 1519 1521 1524 1526 1528 1531 1533 1535 1537 1539 1541 1543
1385 1384 1388 1381 1370 1370 1369 1361 1362 1370 1376 1381 1387 1390 1394 1398 1403 1415 1422 1411 1408 1418 1419 1420 1424 1405 1375 1365 1367 1368 1369 1370 1371 1375 1379 1379 1382 1389 1393 1398 1402 1406 1411 1415 1419 1424 1428 1432 1436 1440 1444 1447 1451 1454 1458 1461 1464 1467 1470 1471 1474 1478 1482 1486 1490 1493 1496 1499 1501 1503 1506 1508 1510 1513 1516 1518 1520 1522 1525 1527 1530 1532 1534 1536 1538 1539
1390 1383 1381 1381 1374 1367 1359 1352 1355 1362 1366 1373 1379 1380 1383 1390 1397 1413 1424 1414 1407 1411 1406 1409 1418 1401 1370 1357 1356 1357 1361 1363 1365 1370 1374 1376 1379 1384 1389 1395 1400 1404 1409 1413 1416 1421 1424 1428 1433 1437 1441 1444 1447 1451 1455 1458 1461 1463 1465 1467 1470 1474 1478 1482 1486 1490 1493 1496 1498 1500 1503 1506 1508 1510 1513 1515 1517 1519 1521 1524 1526 1529 1531 1533 1535 1536
1392 1383 1380 1380 1373 1364 1355 1349 1350 1356 1364 1374 1376 1373 1377 1383 1387 1395 1403 1402 1407 1410 1406 1412 1420 1400 1369 1353 1349 1351 1356 1360 1363 1367 1371 1374 1376 1380 1387 1393 1398 1403 1407 1411 1415 1418 1422 1426 1430 1434 1438 1441 1445 1448 1452 1455 1458 1461 1463 1465 1467 1470 1474 1479 1482 1486 1489 1492 1494 1497 1500 1503 1505 1507 1509 1511 1513 1516 1518 1521 1523 1526 1528 1530 1532 1533
1406 1393 1389 1390 1386 1379 1373 1368 1364 1362 1365 1372 1373 1371 1373 1375 1380 1387 1390 1393 1404 1407 1403 1414 1420 1399 1371 1357 1352 1354 1358 1361 1364 1365 1368 1371 1373 1377 1383 1389 1396 1401 1404 1408 1412 1416 1421 1425 1428 1431 1434 1437 1441 1445 1448 1452 1456 1459 1462 1464 1466 1469 1472 1476 1479 1483 1485 1488 1491 1494 1496 1498 1501 1503 1505 1507 1510 1512 1515 1518 1520 1522 1524 1526 1528 1530
1413 1402 1399 1401 1400 1396 1391 1384 1375 1367 1366 1369 1369 1370 1372 1372 1377 1386 1392 1399 1407 1403 1399 1407 1410 1395 1376 1366 1362 1361 1363 1365 1365 1364 1365 1367 1371 1376 1381 1386 1391 1395 1400 1405 1409 1414 1418 1422 1425 1428 1431 1434 1438 1441 1445 1449 1453 1456 1459 1463 1465 1467 1470 1473 1477 1480 1482 1485 1487 1489 1491 1494 1497 1499 1501 1503 1506 1509 1512 1514 1516 1518 1520 1523 1525 1527
1407 1399 1395 1398 1399 1394 1385 1375 1362 1358 1366 1372 1371 1370 1372 1372 1373 1380 1391 1400 1401 1400 1401 1399 1396 1392 1384 1375 1370 1367 1366 1368 1368 1366 1367 1368 1370 1376 1382 1386 1388 1390 1396 1401 1406 1412 1416 1419 1422 1424 1428 1431 1435 1439 1442 1446 1450 1454 1457 1460 1463 1466 1468 1471 1474 1476 1479 1481 1483 1485 1487 1489 1492 1494 1496 1499 1502 1505 1508 1510 1513 1515 1517 1519 1521 1523
1405 1400 1393 1389 1388 1382 1374 1366 1356 1353 1361 1367 1369 1370 1370 1371 1372 1378 1389 1391 1388 1399 1406 1394 1386 1392 1388 1378 1373 1369 1368 1371 1370 1368 1369 1368 1370 1374 1379 1385 1389 1391 1395 1399 1404 1409 1413 1417 1420 1423 1426 1430 1434 1438 1441 1444 1448 1451 1454 1457 1460 1463 1465 1467 1470 1473 1475 1478 1479 1481 1483 1485 1488 1490 1493 1496 1498 1502 1504 1506 1509 1511 1513 1515 1517 1519
1409 1403 1393 1386 1382 1375 1368 1364 1359 1357 1359 1360 1364 1366 1367 1369 1372 1377 1382 1380 1380 1393 1399 1389 1385 1389 1384 1376 1373 1369 1368 1370 1369 1367 1369 1369 1370 1373 1377 1382 1388 1392 1396 1399 1403 1407 1411 1415 1418 1422 1425 1428 1432 1436 1439 1442 1446 1449 1451 1454 1456 1460 1462 1464 1467 1469 1472 1474 1475 1477 1479 1482 1484 1487 1489 1492 1495 1497 1500 1502 1505 1507 1509 1511 1513 1515
1412 1405 1395 1390 1384 1375 1369 1366 1361 1360 1361 1361 1362 1363 1364 1366 1368 1372 1376 1374 1375 1382 1383 1382 1386 1386 1380 1374 1372 1369 1366 1367 1368 1368 1370 1372 1373 1376 1379 1384 1388 1392 1396 1399 1402 1406 1409 1413 1416 1420 1424 1427 1431 1435 1437 1440 1442 1445 1449 1451 1454 1457 1459 1462 1464 1465 1468 1469 1471 1474 1476 1479 1481 1483 1486 1488 1490 1493 1495 1498 1500 1503 1505 1507 1509 1511
1416 1410 1401 1394 1387 1380 1374 1371 1366 1362 1363 1366 1366 1364 1364 1366 1366 1369 1372 1371 1373 1377 1377 1380 1389 1391 1380 1371 1369 1369 1367 1368 1371 1373 1374 1377 1378 1379 1382 1386 1389 1393 1397 1400 1404 1406 1409 1412 1416 1419 1422 1426 1430 1433 1436 1438 1440 1443 1446 1449 1451 1454 1457 1459 1460 1461 1463 1465 1468 1471 1473 1475 1478 1480 1482 1484 1486 1489 1491 1494 1496 1499 1501 1503 1506 1508
1419 1413 1403 1397 1398 1389 1379 1377 1372 1364 1364 1369 1369 1367 1367 1369 1368 1367 1368 1369 1372 1376 1378 1383 1392 1394 1381 1369 1370 1373 1371 1372 1377 1378 1378 1381 1381 1382 1386 1390 1393 1396 1399 1402 1405 1408 1410 1412 1415 1418 1422 1425 1428 1431 1434 1437 1438 1441 1443 1446 1449 1451 1454 1456 1457 1458 1460 1462 1465 1467 1470 1472 1475 1477 1478 1480 1482 1485 1487 1490 1492 1495 1497 1499 1501 1504
1423 1418 1410 1409 1410 1397 1382 1379 1374 1372 1380 1381 1371 1365 1366 1367 1367 1363 1363 1365 1364 1368 1377 1385 1388 1384 1375 1371 1375 1378 1377 1377 1379 1380 1382 1384 1384 1386 1389 1393 1396 1399 1401 1404 1407 1409 1412 1414 1416 1419 1422 1425 1427 1430 1433 1435 1437 1439 1441 1444 1447 1449 1451 1453 1455 1456 1457 1459 1461 1463 1465 1469 1471 1473 1475 1477 1479 1481 1484 1486 1488 1491 1493 1495 1497 1500
1426 1422 1416 1416 1417 1407 1391 1381 1380 1391 1399 1384 1361 1356 1360 1364 1367 1369 1369 1367 1362 1362 1368 1374 1378 1376 1371 1373 1379 1381 1380 1381 1381 1382 1384 1386 1387 1390 1392 1395 1398 1400 1402 1405 1408 1410 1413 1416 1418 1421 1423 1425 1427 1430 1432 1435 1436 1438 1440 1442 1444 1447 1449 1450 1452 1454 1455 1456 1458 1459 1462 1465 1467 1469 1471 1473 1476 1479 1480 1483 1485 1487 1489 1492 1494 1496
1428 1424 1419 1416 1416 1409 1396 1391 1401 1409 1395 1368 1354 1354 1356 1359 1363 1369 1375 1375 1373 1371 1367 1367 1374 1376 1372 1373 1378 1379 1380 1381 1383 1385 1387 1388 1390 1392 1395 1398 1400 1402 1404 1406 1408 1412 1414 1416 1419 1421 1423 1425 1427 1430 1432 1434 1436 1438 1440 1441 1443 1444 1446 1448 1450 1451 1452 1454 1455 1456 1458 1460 1463 1466 1468 1470 1473 1476 1477 1479 1481 1483 1486 1488 1490 1491
1429 1425 1422 1418 1414 1408 1404 1405 1410 1400 1373 1356 1357 1361 1364 1366 1364 1369 1383 1389 1386 1383 1378 1373 1373 1373 1372 1373 1377 1379 1380 1381 1384 1389 1391 1393 1394 1396 1399 1402 1403 1405 1407 1408 1410 1412 1415 1417 1419 1421 1423 1425 1427 1429 1431 1433 1435 1437 1438 1440 1441 1442 1444 1445 1446 1448 1449 1451 1452 1454 1455 1457 1459 1462 1465 1468 1470 1472 1474 1476 1478 1480 1483 1485 1487 1488
1425 1424 1425 1423 1417 1415 1416 1410 1395 1382 1372 1370 1376 1381 1383 1382 1372 1371 1388 1399 1392 1387 1387 1382 1376 1373 1373 1374 1376 1379 1380 1382 1389 1396 1398 1399 1400 1401 1403 1405 1407 1409 1410 1411 1413 1414 1416 1418 1420 1422 1424 1425 1427 1428 1430 1431 1433 1435 1436 1438 1439 1440 1441 1443 1443 1445 1446 1448 1449 1451 1453 1454 1456 1458 1461 1464 1466 1467 1470 1472 1474 1477 1480 1482 1483 1485
1422 1422 1424 1426 1421 1417 1422 1415 1399 1393 1395 1395 1395 1391 1382 1379 1370 1363 1381 1402 1400 1393 1393 1389 1382 1377 1374 1375 1377 1379 1382 1392 1404 1408 1405 1405 1405 1405 1406 1408 1409 1411 1412 1414 1416 1417 1418 1419 1420 1422 1423 1424 1426 1427 1428 1430 1431 1433 1434 1435 1436 1437 1438 1439 1440 1442 1444 1445 1447 1449 1450 1452 1453 1455 1457 1459 1461 1464 1466 1469 1471 1474 1476 1478 1480 1481
1420 1418 1419 1425 1424 1419 1422 1423 1414 1408 1407 1405 1401 1390 1378 1376 1366 1359 1384 1414 1411 1401 1400 1395 1388 1384 1380 1379 1381 1382 1390 1407 1416 1413 1409 1409 1409 1408 1410 1411 1411 1412 1414 1415 1417 1419 1420 1421 1422 1422 1423 1424 1426 1426 1427 1428 1429 1431 1432 1433 1434 1434 1435 1435 1437 1439 1441 1443 1444 1446 1448 1449 1450 1452 1454 1456 1458 1461 1463 1466 1468 1471 1473 1475 1476 1478
1421 1419 1418 1424 1426 1420 1420 1421 1416 1413 1412 1407 1401 1392 1382 1372 1361 1369 1407 1430 1416 1406 1407 1401 1395 1394 1390 1387 1387 1391 1401 1413 1416 1414 1413 1413 1412 1412 1412 1413 1414 1414 1415 1416 1417 1419 1420 1421 1422 1423 1423 1424 1425 1426 1426 1427 1427 1428 1429 1430 1431 1431 1432 1433 1434 1436 1438 1440 1442 1443 1445 1446 1448 1449 1451 1453 1455 1458 1461 1463 1465 1467 1469 1471 1473 1475
1423 1422 1421 1423 1424 1421 1422 1422 1417 1416 1415 1407 1402 1396 1380 1368 1375 1402 1430 1432 1415 1410 1412 1405 1401 1402 1399 1396 1396 1401 1408 1413 1413 1413 1414 1412 1413 1414 1414 1415 1417 1417 1418 1418 1419 1420 1420 1421 1422 1423 1424 1424 1425 1425 1426 1425 1426 1426 1427 1428 1429 1429 1429 1430 1431 1433 1435 1437 1438 1440 1441 1443 1445 1446 1448 1451 1453 1456 1458 1460 1462 1464 1466 1468 1470 1471
1427 1425 1423 1423 1424 1423 1423 1424 1422 1420 1414 1406 1405 1399 1385 1388 1412 1430 1430 1423 1417 1414 1412 1409 1407 1406 1405 1404 1405 1408 1412 1413 1412 1413 1413 1413 1414 1415 1415 1417 1418 1419 1420 1421 1421 1422 1422 1422 1423 1424 1424 1424 1424 1424 1424 1424 1424 1425 1425 1426 1426 1427 1427 1428 1428 1430 1432 1434 1435 1436 1438 1440 1442 1443 1446 1448 1451 1453 1455 1457 1459 1461 1463 1465 1466 1468
1431 1431 1429 1425 1424 1423 1424 1429 1434 1434 1423 1412 1410 1408 1405 1415 1432 1432 1424 1422 1420 1415 1412 1412 1411 1409 1410 1411 1411 1413 1414 1414 1414 1414 1414 1415 1416 1416 1417 1419 1420 1421 1423 1423 1424 1424 1424 1424 1424 1424 1424 1424 1423 1424 1424 1423 1423 1423 1424 1424 1424 1424 1425 1425 1426 1427 1428 1431 1432 1433 1435 1437 1439 1441 1443 1445 1447 1450 1452 1454 1456 1458 1460 1462 1463 1464
1433 1437 1439 1436 1432 1433 1436 1439 1440 1437 1428 1421 1421 1424 1425 1427 1430 1427 1425 1424 1421 1417 1417 1416 1414 1414 1414 1413 1414 1415 1415 1415 1416 1416 1416 1417 1418 1419 1420 1421 1422 1424 1425 1426 1426 1426 1426 1426 1425 1425 1424 1424 1423 1424 1423 1423 1423 1423 1422 1422 1422 1422 1423 1423 1424 1425 1426 1428 1430 1431 1433 1434 1436 1438 1440 1442 1445 1447 1449 1451 1453 1455 1457 1458 1460 1461
1437 1437 1440 1440 1437 1437 1438 1437 1433 1431 1429 1428 1428 1429 1428 1428 1429 1428 1427 1425 1423 1422 1421 1419 1418 1419 1418 1417 1417 1415 1414 1415 1416 1416 1417 1418 1419 1420 1421 1423 1424 1426 1426 1427 1428 1427 1427 1427 1426 1425 1425 1424 1424 1424 1423 1423 1423 1422 1422 1422 1421 1421 1422 1422 1423 1423 1424 1426 1428 1429 1431 1432 1434 1436 1438 1440 1443 1445 1447 1449 1451 1452 1454 1455 1457 1458
1438 1435 1436 1436 1435 1434 1432 1430 1429 1430 1430 1429 1430 1430 1428 1428 1429 1429 1427 1427 1426 1425 1424 1423 1423 1422 1421 1421 1420 1418 1417 1417 1416 1416 1417 1418 1420 1421 1422 1423 1425 1427 1428 1428 1428 1428 1427 1427 1426 1426 1425 1424 1424 1424 1423 1423 1422 1421 1421 1421 1421 1421 1422 1422 1422 1423 1424 1425 1427 1428 1429 1431 1433 1434 1436 1439 1441 1443 1445 1447 1449 1450 1451 1452 1454 1455
1437 1436 1437 1435 1435 1437 1435 1430 1429 1431 1430 1429 1430 1431 1429 1428 1428 1429 1429 1429 1428 1427 1426 1426 1426 1425 1425 1424 1423 1422 1422 1420 1419 1419 1420 1421 1423 1423 1424 1425 1426 1427 1428 1429 1429 1429 1428 1427 1426 1426 1425 1424 1424 1423 1423 1422 1421 1421 1420 1420 1420 1421 1421 1421 1422 1422 1423 1424 1426 1428 1429 1430 1432 1433 1435 1437 1439 1441 1443 1445 1447 1448 1449 1450 1452 1453
1440 1439 1439 1437 1436 1438 1438 1434 1430 1430 1429 1429 1430 1431 1431 1430 1429 1429 1430 1430 1429 1428 1428 1428 1427 1427 1427 1427 1426 1426 1424 1424 1424 1424 1424 1425 1426 1426 1426 1427 1428 1428 1429 1429 1429 1429 1428 1427 1427 1425 1425 1424 1424 1423 1422 1422 1421 1421 1420 1420 1420 1420 1420 1421 1422 1422 1422 1424 1425 1427 1428 1430 1431 1432 1434 1436 1438 1440 1442 1444 1445 1446 1447 1448 1449 1450
1443 1441 1440 1438 1437 1436 1435 1434 1433 1431 1429 1429 1431 1432 1432 1431 1430 1430 1430 1431 1430 1430 1429 1429 1429 1429 1429 1430 1429 1428 1428 1428 1428 1427 1427 1427 1427 1427 1428 1429 1429 1429 1429 1429 1429 1429 1428 1427 1426 1425 1424 1424 1423 1423 1422 1421 1421 1422 1421 1420 1419 1419 1419 1420 1421 1421 1422 1423 1424 1426 1428 1429 1430 1432 1433 1435 1437 1439 1441 1442 1444 1445 1446 1447 1448 1449
1446 1446 1444 1442 1443 1442 1438 1437 1439 1440 1437 1434 1432 1433 1432 1432 1431 1430 1430 1430 1430 1430 1431 1430 1430 1431 1431 1432 1431 1430 1430 1429 1428 1428 1428 1428 1428 1428 1429 1430 1430 1430 1429 1428 1428 1428 1427 1426 1425 1424 1424 1424 1423 1423 1422 1421 1422 1422 1420 1419 1419 1418 1418 1419 1420 1421 1421 1422 1423 1425 1426 1428 1430 1431 1432 1434 1436 1438 1439 1440 1441 1443 1444 1444 1446 1447
1451 1453 1451 1451 1452 1448 1443 1440 1441 1442 1440 1436 1435 1434 1433 1432 1431 1431 1430 1430 1429 1429 1429 1429 1430 1431 1431 1431 1431 1430 1429 1428 1428 1428 1428 1428 1429 1430 1429 1430 1430 1430 1429 1429 1428 1427 1426 1426 1425 1424 1424 1424 1423 1422 1422 1421 1421 1420 1420 1420 1419 1419 1419 1419 1419 1420 1420 1421 1423 1424 1425 1427 1428 1429 1431 1433 1435 1436 1436 1437 1439 1440 1441 1442 1444 1445